Regional Weather Roundup
Issued by NWS Charleston, SC

Current Version | Previous Version | Graphics & Text | Print | Product List | Glossary On
Versions: 1 2 3 4 5 6 7 8 9 10 11 12 13 14 15 16 17 18 19 20 21 22 23 24 25 26 27 28 29 30 31 32 33 34 35 36 37 38 39 40 41 42 43 44 45 46 47 48 49 50
000 ASUS42 KCHS 280611 RWRCHS REGIONAL WEATHER ROUNDUP NATIONAL WEATHER SERVICE CHARLESTON SC 200 AM EDT SAT MAR 28 2015 NOTE: "FAIR" INDICATES FEW OR NO CLOUDS BELOW 12,000 FEET WITH NO SIGNIFICANT WEATHER AND/OR OBSTRUCTIONS TO VISIBILITY. NOT ALL STATIONS ARE QUALITY CONTROLLED BY THE NATIONAL WEATHER SERVICE. USE DATA WITH CAUTION...ESPECIALLY DEWPOINT OBSERVATIONS. SCZ027-030-031-034>040-042>050-280700- ...SOUTHEAST SOUTH CAROLINA... CITY SKY/WX TMP DP RH WIND PRES REMARKS N CHARLESTON CLEAR 47 44 90 N7 29.90S 6HR MIN TEMP: 47; 6HR MAX TEMP: 53; 6HR PCP: TRACE; WATERFRONT PRK N/A 50 N/A N/A N9 N/A MOUNT PLEASANT MOCLDY 46 45 93 CALM 29.91R PINOPOLIS N/A 52 45 76 NW12 29.82R MONCKS CORNER FAIR 48 43 81 CALM 29.90S SUMMERVILLE FAIR 46 43 87 NW5 29.92S BEAUFORT MCAS CLEAR 49 42 77 NW8 29.93R 6HR MIN TEMP: 49; 6HR MAX TEMP: 56; BEAUFORT ARPT FAIR 50 45 81 CALM 29.93R HILTON HEAD IS CLEAR 52 45 76 N10G16 29.94R WALTERBORO PTCLDY 45 43 93 CALM 29.93R ALLENDALE MOCLDY 46 45 93 CALM 29.94R ...SOUTHERN MIDLANDS AND PEE DEE... CITY SKY/WX TMP DP RH WIND PRES REMARKS GEORGETOWN NOT AVBL KINGSTREE NOT AVBL ORANGEBURG CLOUDY 47 42 83 W3 29.92R 6HR MIN TEMP: 46; 6HR MAX TEMP: 51; 6HR PCP: TRACE; BARNWELL FAIR 45 45 100 W6 29.94S AIKEN MOCLDY 41 39 93 NW3 29.97S MANNING FLURRIES 45 34 65 CALM 29.90F COLUMBIA LGT RAIN 46 42 86 W13 29.93R 6HR MIN TEMP: 46; 6HR MAX TEMP: 50; 6HR PCP: 0.02; SUMTER MOCLDY 44 41 90 W6 29.89R 6HR MIN TEMP: 44; 6HR MAX TEMP: 48; 6HR PCP: 0.01; FLORENCE CLOUDY 46 43 89 W8 29.89R 6HR MIN TEMP: 46; 6HR MAX TEMP: 49; 6HR PCP: 0.03; MYRTLE BEACH CLOUDY 46 41 81 NW7 29.90R N MYRTLE BEACH CLOUDY 46 42 86 NW5 29.86S 6HR MIN TEMP: 45; 6HR MAX TEMP: 48; 6HR PCP: TRACE; $$ GAZ063-065-086>088-099>101-113>116-118-119-134>141-150-280700- ...SOUTHEAST GEORGIA... CITY SKY/WX TMP DP RH WIND PRES REMARKS SAVANNAH ARPT MOCLDY 51 44 77 NW8 29.95R 6HR MIN TEMP: 49; 6HR MAX TEMP: 61; HUNTER AAF CLEAR 48 44 85 W6 29.93R 6HR MIN TEMP: 47; 6HR MAX TEMP: 61; FORT STEWART PTCLDY 51 34 52 W9 29.94R 6HR MIN TEMP: 51; 6HR MAX TEMP: 59; STATESBORO PTCLDY 47 44 88 N3 29.96R SYLVANIA CLEAR 47 45 91 NW5 29.96R CLAXTON FAIR 52 34 50 NW8 29.96S ...CSRA...CENTRAL AND FAR SOUTHEAST GEORGIA... CITY SKY/WX TMP DP RH WIND PRES REMARKS THOMSON CLEAR 46 36 69 CALM 30.01S AUGUSTA-BUSH PTCLDY 46 43 89 W8 29.95S 6HR MIN TEMP: 46; 6HR MAX TEMP: 55; 6HR PCP: TRACE; AUGUSTA-DANIEL CLEAR 47 40 76 NW8 29.95S SWAINSBORO FAIR 50 21 32 NW9 29.98S VIDALIA CLEAR 52 32 46 NW10 29.98R EASTMAN FAIR 49 33 53 NW7 30.04R HAZLEHURST FAIR 50 34 53 W5 29.99R ALMA CLEAR 51 32 48 NW12 30.00R 6HR MIN TEMP: 50; 6HR MAX TEMP: 56; WAYCROSS CLEAR 53 38 57 NW12 30.00R JESUP MOCLDY 52 41 66 NW7 29.98R BAXLEY FAIR 52 34 50 NW9 29.99R BRUNSWICK CLEAR 52 37 58 W6 29.98R SAINT SIMONS CLEAR 52 39 61 W9G17 29.97R 6HR MIN TEMP: 52; 6HR MAX TEMP: 60; $$ SCZ027-028-034-036>038-045-046-048>050-GAZ119-141-280700- ...LAKE AND SUPPLEMENTAL COASTAL OBSERVATIONS... STATION/POSITION TIME TEMP WIND PRES WAVE SWELL AIR SEA DIR/SP/G HT/PER HT/PER/DIR (UTC) (F) (DEG/KT/KT) (MB) (FT/S) (FT/S/D) UPR LAKE MARION NOT AVBL WINYAH BAY 0445 48 320/ 4 1010.0 LAKE MURRAY 0500 46 290/ 5/ 11 1012.5R ACE BASIN NERRS NOT AVBL FORT PULASKI 0500 53 60 330/ 6/ 9 1013.3 SAPELO ISLAND 0500 53 280/ 10 1013.0S $$ ANZ835-935-AMZ111-154-330-350-352-354-370-450-454-472-280700- ...C-MAN AND BUOY OBSERVATIONS... STATION/POSITION TIME TEMP WIND PRES WAVE SWELL AIR SEA DIR/SP/G HT/PER HT/PER/DIR (UTC) (F) (DEG/KT/KT) (MB) (FT/S) (FT/S/D) BUOY 41004 0550 54 69 320/ 16/ 19 1010.7R 5/ 6 2/ 9 BUOY 41008 0550 57 60 310/ 21/ 27 1012.9R 3/ 5 2/110/ 9 FOLLY BEACH CMAN 0600 49 350/ 7/ 10 1012.5R CAPERS NEARSHORE 0500 50 340/ 16/ 17 N/A FRIPP NEARSHORE 0500 53 330/ 14/ 17 1012.2R STATION/POSITION TIME TEMP WIND PRES WAVE SWELL AIR SEA DIR/SP/G HT/PER HT/PER/DIR (UTC) (F) (DEG/KT/KT) (MB) (FT/S) (FT/S/D) 5E ST. MARYS GA 0521 61 N/A 2/ 3 FRYING PAN BUOY 0550 50 65 340/ 14/ 17 1009.7R 6/ 8 5/120/ 8 BUOY 41025 NOT AVBL CAPE LOOKOUT NC 0600 45 350/ 10/ 14 1008.2R BUOY 41002 0550 67 69 250/ 17/ 21 1005.3R 11/ 8 8/200/ 8 BUOY 41010 0520 72 76 300/ 25/ 31 1010.5R ST AUGUSTINE FL 0600 55 60 300/ 9/ 12 1015.9R $$

USA.gov is the U.S. government's official web portal to all federal, state and local government web resources and services.